Content
SEND FEEDBACK

Daily
Averages
Monthly
Summary
United States of America

DEDEDO, GUAM


Home > North America > United States > Guam
Elevation: 364 feet     Latitude: 13 33N     Longitude: 144 49E

WEATHER
 
SELECT A DAY
Number of Records: 209,106;   Date Range: 1/1/95 - 8/12/14
 
SHARE

PRINT THIS DATA

[ ← Previous Day ]
WEATHER ALMANAC - OCTOBER 5, 2013
[ Next Day → ]
[ °C ]   °F
Weather ElementAverageHighLow
Temperature82.6 °F86 °F (10:54 am)78.1 °F (5:54 am)
Dewpoint77.1 °F79 °F (9:54 am)75.9 °F (3:54 am)
Humidity83.8 %94 % (1:54 am)74 % (11:54 am)
Barometer29.67 in29.73 in (9:54 pm)29.63 in (3:54 am)
Wind Speed7.5 mph13.8 mph (3:06 pm)
Wind Gust19.6 mph (10:54 am)
Weather ElementAverage
Visibility10 mi
Wind DirectionSE (134.6 °)

Weather ElementTotal
Precipitation0.03 in
Cooling Degree Days17.1 (Base 65)
Growing Degree Days32.1 (Base 50)
Averaged from 28 records on October 5, 2013
WEATHER CONDITIONS BREAKOUT
WIND DIRECTION BREAKOUT
WEATHER BY HOUR - OCTOBER 5, 2013
[ °C ]   °F
Local TimeTemperatureDewpointHumidityBarometerVisibilityWind DirectionWind SpeedGust SpeedPrecipitationEventsConditions
1:54 AM79.0 °F77.0 °F94 %29.64 in10.0 miCalmClear
2:54 AM79.0 °F77.0 °F94 %29.64 in10.0 miSSE (160°)4.6 mphClear
3:54 AM79.0 °F75.9 °F90 %29.63 in10.0 miSouth (180°)4.6 mphClear
4:54 AM79.0 °F77.0 °F94 %29.63 in10.0 miCalmClear
5:54 AM78.1 °F75.9 °F93 %29.64 in10.0 miSSE (160°)3.5 mphClear
6:54 AM80.1 °F77.0 °F90 %29.65 in10.0 miCalmClear
7:54 AM82.9 °F78.1 °F85 %29.67 in10.0 miSouth (180°)3.5 mphClear
8:54 AM84.0 °F77.0 °F79 %29.68 in10.0 miSouth (190°)5.8 mphMostly Cloudy
9:15 AM84.2 °F77.0 °F79 %29.71 in10.0 miSouth (180°)10.4 mphScattered Clouds
9:54 AM84.0 °F79.0 °F85 %29.70 in10.0 miSSE (150°)5.8 mph0.00 inMostly Cloudy
10:54 AM86.0 °F78.1 °F77 %29.69 in10.0 miSE (140°)12.7 mph19.6 mph0.00 inPartly Cloudy
11:54 AM84.9 °F75.9 °F74 %29.68 in10.0 miSSE (160°)8.1 mphClear
12:35 PM84.2 °F78.8 °F84 %29.68 in10.0 miESE (120°)9.2 mph0.01 inMostly Cloudy
12:45 PM84.2 °F78.8 °F84 %29.68 in10.0 miSE (140°)10.4 mph0.01 inPartly Cloudy
12:54 PM84.0 °F78.1 °F82 %29.65 in10.0 miSE (130°)8.1 mph0.01 inPartly Cloudy
1:43 PM84.2 °F78.8 °F84 %29.67 in10.0 miSE (130°)10.4 mphThunderstormMostly Cloudy
1:54 PM84.9 °F78.1 °F80 %29.64 in10.0 miSE (140°)10.4 mphMostly Cloudy
2:54 PM82.9 °F78.1 °F85 %29.63 in10.0 miESE (120°)11.5 mph19.6 mphMostly Cloudy
3:06 PM82.4 °F77.0 °F84 %29.65 in10.0 miESE (110°)13.8 mph18.4 mphPartly Cloudy
3:54 PM84.9 °F77.0 °F77 %29.63 in10.0 miSSE (150°)12.7 mphScattered Clouds
4:54 PM84.9 °F75.9 °F74 %29.64 in10.0 miSSE (150°)10.4 mphScattered Clouds
5:54 PM82.9 °F77.0 °F82 %29.67 in10.0 miSSE (150°)9.2 mphScattered Clouds
6:54 PM82.0 °F77.0 °F85 %29.68 in10.0 miSSE (160°)9.2 mphScattered Clouds
7:54 PM82.0 °F77.0 °F85 %29.70 in10.0 miSouth (170°)6.9 mphScattered Clouds
8:54 PM82.0 °F75.9 °F82 %29.72 in10.0 miSSE (150°)6.9 mphPartly Cloudy
9:54 PM82.0 °F75.9 °F82 %29.73 in10.0 miSE (140°)4.6 mphPartly Cloudy
10:54 PM82.9 °F75.9 °F79 %29.73 in10.0 miSSE (160°)9.2 mphScattered Clouds
11:54 PM82.0 °F75.9 °F82 %29.71 in10.0 miSSE (150°)8.1 mphPartly Cloudy
Hourly data recorded from PGUM, located miles away from Dededo, Guam







STORIES FROM OUR PARTNERS